Location: Mountain View
(32.1124°N, 97.0761°W)
Time: 01:53:31
(UTC+00:00)

Daily predictions for brighter satellites

Satellite Brightness Start Highest point End
(mag) Time Altitude Azimuth Time Altitude Azimuth Time Altitude Azimuth
Cosmos 1980 Rocket 3.3 01:53:22 10° N 01:58:16 29° ENE 02:03:08 10° ESE
SPOT 1/Viking Rocket 3.6 01:53:37 10° SSE 01:58:43 74° ENE 02:03:49 10° N
Delta 168 4.3 02:01:22 10° WSW 02:06:09 44° S 02:13:13 10° ESE
Centaur AC-119 4.1 02:02:36 10° SSW 02:06:20 32° SE 02:15:49 10° E
USA 234 3.4 02:02:39 10° NE 02:09:01 54° SE 02:15:22 10° SSW
DELTA 2 R/B (1) 4.0 02:05:09 10° WNW 02:10:38 57° SSW 02:16:06 10° SE
Meteor 1-18 Rocket 4.4 02:07:47 10° S 02:13:42 85° W 02:19:32 10° N
Resurs 01 Rocket 1.9 02:10:02 10° SSE 02:14:17 51° ENE 02:18:33 10° N
SJ-6B 3.9 02:15:22 10° S 02:18:47 41° W 02:22:13 10° NNW
Cosmos 2026 Rocket 4.0 02:13:23 10° S 02:19:35 81° E 02:25:42 10° N
Lacrosse 5 rocket 2.8 02:22:34 10° WNW 02:26:17 32° WSW 02:29:53 10° S
Cosmos 1470 4.4 02:25:28 10° NE 02:27:58 17° ENE 02:29:33 14° ESE
CZ-4 R/B 2.5 02:25:01 10° S 02:28:45 43° W 02:32:34 10° NNW
CZ-4B R/B 3.2 02:24:39 10° SSE 02:29:56 86° WSW 02:35:15 10° NNW
Cosmos 1328 Rocket 4.3 02:27:57 10° SSW 02:32:08 53° W 02:36:20 10° N
KORONAS-FOTON 4.0 02:28:37 10° SSE 02:32:09 45° E 02:35:43 10° NNE
Cosmos 1842 3.1 02:34:14 10° S 02:37:49 60° E 02:41:25 10° NNE
IRIDIUM 106 4.4 02:37:17 10° N 02:42:24 56° E 02:46:58 13° SSE
H-2A R/B 2.2 02:44:31 10° SW 02:45:26 13° SSW 02:45:26 13° SSW
Cosmos 540 Rocket 4.2 02:46:50 10° N 02:51:35 37° ENE 02:54:15 22° ESE
Meteosat 1 Rocket2 4.3 02:47:53 10° W 02:53:06 52° S 02:58:25 20° ESE
USA 186 4.1 02:53:43 10° SSW 02:56:24 23° W 02:59:07 10° NW
Cosmos 2082 Rocket 4.1 02:51:58 10° SW 02:57:03 33° WNW 03:02:09 10° N
SL-16 R/B 3.7 02:56:28 10° N 03:00:48 22° ENE 03:03:14 17° E
Okean-O 2.6 02:58:43 23° SSE 03:01:23 70° ENE 03:05:46 10° N
MOS 1-B Rocket 4.3 02:55:27 10° S 03:01:54 65° WSW 03:07:39 10° NNW
Cosmos 1707 2.6 02:59:32 12° S 03:02:47 78° W 03:06:24 10° N
Cosmos 1515 Rocket 4.3 02:59:53 10° SSW 03:04:04 53° W 03:08:18 10° N
SeaSat 1 3.9 03:02:21 18° E 03:04:29 23° ENE 03:08:19 10° N
Cosmos 2369 3.7 02:59:11 10° NNW 03:04:56 86° ENE 03:08:35 23° SSE
PSLV R/B 4.5 03:02:42 15° S 03:05:28 45° W 03:08:51 10° NNW
Atlas Centaur 2 3.0 02:59:26 10° W 03:07:29 80° S 03:14:19 17° E
USA 245 4.4 03:10:21 23° ENE 03:10:33 23° ENE 03:13:34 10° NNE
CZ-4C R/B 3.8 03:10:00 10° N 03:14:05 64° WNW 03:18:07 10° SSW
SPOT 5 2.6 03:14:17 35° SE 03:15:57 66° ENE 03:20:15 10° N
IRS-1A Rocket 4.4 03:14:39 30° SE 03:17:12 55° ENE 03:22:33 10° N
Cosmos 2228 Rocket 4.0 03:18:36 30° E 03:18:47 30° E 03:22:45 10° NNE
MetOp-B 4.1 03:16:28 29° SSE 03:19:14 73° ENE 03:24:34 10° N
Okean O Rocket 3.2 03:17:40 10° SSW 03:21:35 31° W 03:25:29 10° NW
Tiangong -0.9 03:19:12 10° NW 03:22:08 34° NNE 03:22:45 30° NE
Cosmos 1356 Rocket 4.3 03:25:55 33° E 03:25:55 33° E 03:29:21 10° NNE
ASTRO E2 3.0 03:22:58 10° WSW 03:25:30 39° SSW 03:25:30 39° SSW
Cosmos 1553 Rocket 4.1 03:22:40 10° N 03:28:53 77° W 03:33:03 23° S
Cosmos 1869 Rocket 3.7 03:25:09 10° N 03:29:32 56° E 03:30:17 49° ESE
Cosmos 1400 Rocket 2.6 03:28:43 53° S 03:29:33 80° E 03:33:26 10° N
ERS-1 Rocket 3.0 03:30:43 42° SE 03:32:12 61° ENE 03:37:10 10° N
S3M 4.2 03:26:11 10° N 03:32:25 56° E 03:34:40 37° SE
Cosmos 2266 Rocket 4.0 03:30:54 22° S 03:35:14 88° E 03:41:39 10° N
Cosmos 1655 Rocket 4.1 03:34:27 35° SSE 03:37:08 61° E 03:43:25 10° NNE
ATLAS CENTAUR R/B 1.4 03:36:30 29° SW 03:38:03 59° WNW 03:41:31 10° NNE
Meteor 1-22 Rocket 4.4 03:34:28 10° N 03:40:09 61° E 03:41:50 44° SE
Cosmos 841 Rocket 3.9 03:36:04 10° N 03:41:06 45° ENE 03:41:59 41° E
Cosmos 1980 Rocket 3.7 03:37:15 10° NW 03:42:08 30° WSW 03:45:43 16° SSW
Cosmos 1763 Rocket 4.3 03:37:49 10° NNW 03:42:46 44° WSW 03:45:09 26° SSW
Spot 2 Rocket 3.6 03:42:27 48° ESE 03:43:23 57° ENE 03:48:22 10° N
Cosmos 2322 Rocket 3.2 03:38:52 10° N 03:43:52 31° ENE 03:44:58 29° E
Cosmos 1300 4.3 03:41:24 10° NNE 03:43:15 22° NE 03:43:15 22° NE
Cosmos 1441 Rocket 3.3 03:41:43 10° NNW 03:45:17 62° W 03:45:27 61° WSW
Cosmos 1908 4.0 03:49:49 10° NNW 03:53:13 40° W 03:53:29 39° WSW
Cosmos 1862 Rocket 3.9 03:55:14 51° ENE 03:55:14 51° ENE 03:58:57 10° NNE
Meteor 1-21 4.2 03:54:03 53° SSE 03:55:13 67° E 04:00:59 10° NNE
Terra 1.6 03:54:54 68° S 03:55:30 89° WSW 04:00:14 10° NNW
Cosmos 2278 3.6 03:50:03 10° NNW 03:55:47 90° ENE 03:57:04 56° SSE
Meteor 2-10 Rocket 3.6 03:50:27 10° N 03:55:53 61° E 03:56:28 57° ESE
Cosmos 883 Rocket 4.4 03:55:28 10° N 04:01:49 73° E 04:03:16 54° SSE
Landsat 5 3.9 04:02:46 10° NNE 04:05:57 53° NNE 04:05:57 53° NNE
Okean 3 4.3 04:08:31 41° NNE 04:08:31 41° NNE 04:11:24 10° NNE
Ariane Rocket 2.8 04:07:33 72° S 04:08:04 85° WSW 04:13:11 10° NNW
Cosmos 2219 Rocket 3.9 04:05:17 10° NNE 04:09:18 20° ENE 04:09:56 19° ENE
Cosmos 2237 4.2 04:05:37 10° NNW 04:11:21 76° WSW 04:12:12 63° SSW
SL-14 R/B 4.1 04:12:43 45° WNW 04:12:43 45° WNW 04:16:00 10° N
Cosmos 1707 Rocket 3.8 04:15:12 63° W 04:15:12 63° W 04:19:36 10° N
SJ 16-02 1.8 04:16:45 54° N 04:16:45 54° N 04:20:08 10° NNE
Cosmos 1346 Rocket 4.1 04:23:52 10° N 04:26:15 36° N 04:26:15 36° N
Cosmos 2315 Rocket 4.1 04:22:02 10° N 04:28:24 74° W 04:29:34 59° SSW
SPOT 3 Rocket 3.9 04:32:13 52° WSW 04:32:23 53° W 04:37:24 10° NNW
RESURS DK-1 3.5 04:28:28 10° NNW 04:31:10 40° NNW 04:31:10 40° NNW
Cosmos 2360 Rocket 2.3 04:28:34 10° NNW 04:34:00 66° NE 04:34:00 66° NE
ATLAS 2AS CENTAUR R/B 3.0 04:30:10 10° NNW 04:36:42 50° NE 04:37:28 48° ENE
MOS 1 Rocket 4.5 04:38:37 39° WSW 04:39:08 40° W 04:44:10 10° NNW
SeaSat 1 3.5 04:42:03 36° W 04:42:03 36° W 04:46:12 10° NW
Cosmos 1733 Rocket 4.1 04:39:31 10° NNW 04:42:50 44° NW 04:42:50 44° NW
SL-16 R/B 2.9 04:39:41 10° NW 04:44:59 42° WSW 04:45:05 42° WSW
Okean 1-7 4.3 04:47:57 38° N 04:47:57 38° N 04:50:42 10° N
USA 281 4.0 04:45:41 36° ENE 04:46:26 37° ENE 04:52:21 10° N
Cosmos 2333 Rocket 2.3 04:41:47 10° NNW 04:47:07 74° NNE 04:47:07 74° NNE
CZ-2C R/B 4.4 04:50:23 33° ENE 04:50:23 33° ENE 04:59:11 10° N
Meteor 2-20 4.5 04:44:49 10° NNW 04:50:57 69° W 04:51:09 69° WSW
Cosmos 1814 Rocket 4.5 04:51:15 10° NNW 04:55:33 58° N 04:55:33 58° N
Atlas Centaur 2 3.0 04:48:45 10° W 04:56:31 60° SSW 04:56:31 60° SSW
Cosmos 1745 Rocket 4.2 05:08:42 64° NE 05:08:42 64° NE 05:14:14 10° N
Cosmos 839 Rocket 4.1 05:06:09 10° NNW 05:12:09 66° NE 05:12:09 66° NE
Nadezhda 1 Rocket 4.2 05:19:10 10° N 05:24:27 62° NNE 05:24:27 62° NNE
Cosmos 2297 Rocket 3.6 05:29:40 30° NE 05:29:40 30° NE 05:32:35 10° NNE
Cosmos 2322 Rocket 3.7 05:22:56 10° NW 05:26:46 27° W 05:26:46 27° W
CENTAUR R/B 4.5 05:33:37 14° ENE 05:33:37 14° ENE 05:34:49 10° ENE
CZ-3 Stage 3 3.6 05:00:43 10° W 05:34:19 76° SSW 05:35:53 66° SE
COSMOS 2428 3.6 05:47:07 10° NNW 05:51:11 47° N 05:51:11 47° N
Cosmos 2219 Rocket 3.4 05:48:02 10° NNW 05:51:37 35° WNW 05:51:37 35° WNW
COSMOS 2455 3.8 06:07:47 40° NW 06:07:47 40° NW 06:13:10 10° N
SL-12 R/B(2) 4.4 06:09:01 56° E 06:09:01 56° E 06:16:39 10° NE
CZ-4C R/B 3.7 06:13:09 25° NNW 06:13:09 25° NNW 06:16:10 10° N
ATLAS 2AS CENTAUR R/B 4.4 06:22:00 10° WNW 06:24:53 20° W 06:24:53 20° W
USA 281 4.4 06:32:33 30° WNW 06:32:33 30° WNW 06:36:41 10° NW
SL-16 R/B 4.2 06:41:36 10° NNE 06:45:42 20° ENE 06:46:35 19° ENE
Cosmos 2227 Rocket 3.2 06:52:28 42° NNW 06:52:28 42° NNW 06:56:28 10° N
Cosmos 2237 Rocket 3.2 06:47:29 10° NNW 06:51:08 42° NNW 06:51:08 42° NNW
H-2A R/B 4.5 06:49:51 10° N 06:51:12 19° NNW 06:51:12 19° NNW
Cosmos 2297 Rocket 4.2 07:11:25 18° WNW 07:11:25 18° WNW 07:15:16 10° NNW
Cosmos 2219 4.0 07:15:09 47° N 07:15:09 47° N 07:19:11 10° NNE
CENTAUR R/B 3.3 07:20:44 38° NW 07:20:44 38° NW 07:26:19 10° NNE
Cosmos 2341 Rocket 4.4 07:27:49 57° ENE 07:27:49 57° ENE 07:33:16 10° NNE
ADEOS II 4.3 07:31:28 10° ENE 07:34:19 15° E 07:34:19 15° E
Cosmos 1937 Rocket 4.4 07:38:33 47° NNE 07:38:33 47° NNE 07:42:18 10° NNE
Cosmos 1898 Rocket 4.4 07:42:11 44° N 07:42:11 44° N 07:45:47 10° N
Cosmos 2263 Rocket 2.9 07:45:28 46° NNW 07:45:28 46° NNW 07:49:50 10° N
Resurs 1-4 Rocket 3.3 07:43:09 10° NNE 07:47:22 34° E 07:47:22 34° E
Cosmos 1821 Rocket 4.5 08:00:01 46° ESE 08:00:33 48° E 08:06:22 10° NNE
Cosmos 2218 Rocket 3.9 08:03:34 85° NNW 08:03:34 85° NNW 08:09:38 10° N
Cosmos 1844 Rocket 3.7 08:04:20 37° E 08:04:20 37° E 08:09:15 10° NE
Cosmos 2366 rocket 3.9 08:10:21 73° WNW 08:10:21 73° WNW 08:16:28 10° N
NOSS 3-2 (C) 3.6 08:12:44 51° NW 08:12:44 51° NW 08:17:48 10° NNE
ALOS 4.3 08:09:50 10° NE 08:12:56 18° E 08:13:24 17° ESE
Cosmos 1680 Rocket 4.0 08:14:36 10° N 08:19:42 54° ENE 08:20:15 52° E
Cosmos 2228 3.9 08:18:44 10° N 08:21:59 46° NNE 08:21:59 46° NNE
USA 267 3.2 08:16:47 10° NE 08:23:15 64° SE 08:24:01 60° SSE
MSX 3.6 08:19:41 10° NNE 08:25:26 84° WNW 08:25:33 83° WSW
SL-16 R/B 3.1 08:24:35 10° NNW 08:28:23 37° WNW 08:28:23 37° WNW
SL-16 R/B 4.0 08:29:01 10° SE 08:34:31 34° ENE 08:40:00 10° N
CZ-2C R/B 2.6 08:37:15 66° SE 08:37:56 77° ENE 08:43:16 10° N
IDEFIX/ARIANE 42P 3.0 08:33:25 10° N 08:38:13 50° WNW 08:38:13 50° WNW
SEDSat Delta rocket 4.4 08:41:06 27° E 08:41:06 27° E 08:43:03 10° E
Mugunghwa Rocket 4.3 08:42:20 48° SSE 08:42:20 48° SSE 08:48:08 10° E
CZ-2C R/B 2.9 08:39:22 10° N 08:44:41 80° WNW 08:44:52 78° WSW
Cosmos 1943 3.5 08:39:15 10° NNW 08:44:48 63° ENE 08:47:43 28° SE
CZ-2D R/B 2.2 08:43:29 10° N 08:48:42 59° WNW 08:48:55 59° W
FENGYUN 3A 3.5 08:46:40 10° NNE 08:52:04 89° WNW 08:52:54 65° SSW
ASTEX 1 3.9 08:52:22 36° SE 08:54:02 53° E 08:58:46 10° N
Cosmos 1606 Rocket 4.4 08:50:41 10° N 08:54:57 46° E 08:56:15 35° SE
Cosmos 921 Rocket 4.5 08:51:39 10° N 08:55:28 33° ENE 08:57:56 18° SE
Cosmos 1125 Rocket 4.0 08:57:57 40° SSE 08:59:24 53° ESE 09:04:32 10° NNE
Cosmos 1867 4.1 09:01:14 42° W 09:02:03 45° WNW 09:07:18 10° NNE
Cosmos 2239 Rocket 4.4 09:00:57 51° SSW 09:02:32 73° W 09:08:40 10° N
Cosmos 1727 Rocket 4.0 09:01:53 10° NNW 09:08:10 68° W 09:10:22 42° SSW
Cosmos 1726 Rocket 4.3 09:06:07 10° N 09:10:27 51° E 09:12:35 27° SE
Cosmos 494 Rocket 4.4 09:07:13 10° N 09:12:25 62° ENE 09:17:16 12° SSE
Cosmos 1812 4.4 09:10:22 10° NNE 09:13:28 27° E 09:15:37 16° SE
Cosmos 2058 3.7 09:12:19 34° SE 09:13:32 45° E 09:17:25 10° NNE
ADEOS II 2.3 09:09:08 10° N 09:14:11 51° WNW 09:15:11 44° WSW
Cosmos 1844 4.0 09:15:24 43° WSW 09:16:54 54° WNW 09:22:34 10° N
USA 238 DEB 4.3 09:16:15 29° W 09:18:26 37° NW 09:24:25 10° NNE
USA 238 4.3 09:16:17 29° W 09:18:28 37° NW 09:24:28 10° NNE
IRAS Rocket 4.2 09:13:01 10° NNE 09:18:31 78° ESE 09:20:58 34° S
GOES 2 Rocket 4.4 09:21:11 24° SSE 09:21:11 24° SSE 09:23:31 10° SE
Cosmos 1000 Rocket 4.4 09:16:00 10° N 09:22:15 76° W 09:25:45 28° S
SAR-Lupe-4 3.3 09:18:51 10° NNE 09:22:24 90° ESE 09:22:35 80° S
ATLAS 5 CENTAUR R/B 2.2 09:25:49 28° SE 09:26:18 29° ESE 09:29:12 10° NE
Timation 2 Rocket 4.0 09:23:52 33° SSW 09:27:08 88° WNW 09:33:39 10° NNE
Resurs 1-4 Rocket 3.5 09:23:26 10° NNW 09:27:29 23° WNW 09:28:26 22° W
UNK 4.2 09:25:29 11° SSE 09:29:45 60° ENE 09:34:16 10° N
Iridium 4 Rocket 4.1 09:25:25 10° NNE 09:29:53 49° E 09:34:35 11° SSE
Dummy Sat-01 4.5 09:27:17 10° N 09:30:58 67° W 09:31:21 61° SW
Meteor 1-28 Rocket 3.2 09:35:43 49° W 09:35:43 49° W 09:39:02 10° NNW
Delta 142 4.2 09:40:12 32° WSW 09:42:15 51° S 09:48:24 10° ESE
Cosmos 1544 2.2 09:42:29 71° ESE 09:42:34 72° E 09:45:10 10° N
NOSS 2-3 (D) 4.2 09:42:01 24° SSE 09:43:41 38° ESE 09:47:08 10° NE
Cosmos 1892 Rocket 4.1 09:42:43 35° WSW 09:43:42 40° W 09:47:52 10° N
Cosmos 1535 Rocket 4.4 09:39:57 22° S 09:44:11 80° W 09:50:22 10° N
Delta 2 Rocket 3.6 09:43:07 16° WNW 09:46:14 67° NNE 09:50:37 10° E
NOAA 11 4.2 09:42:00 10° NNE 09:47:30 80° ESE 09:51:43 17° S
Cosmos 1844 Rocket 4.0 09:45:59 20° W 09:48:04 24° WNW 09:52:32 10° N
Cosmos 2058 Rocket 3.2 09:44:19 10° N 09:48:43 74° E 09:53:05 10° S
ALOS 3.1 09:46:01 10° N 09:50:09 34° WNW 09:51:42 27° WSW
Cosmos 2298 Rocket 4.0 09:49:11 23° SSW 09:52:33 86° WNW 09:57:53 10° NNE
METEOR-M 4.1 09:49:22 10° N 09:54:43 79° WNW 09:58:36 19° SSW
Aurora 2 Rocket 4.4 09:53:30 19° S 09:55:51 24° SSE 10:01:14 10° ESE
BREEZE-M DEB (TANK) 3.5 09:54:25 28° WSW 09:56:03 63° NNW 10:04:51 10° NE
Cosmos 1607 4.0 09:55:07 10° NNW 10:01:31 82° ENE 10:07:43 10° SSE
NOSS 2-2 (C) 3.1 10:00:13 31° SW 10:01:38 56° WNW 10:04:44 10° NNE
Cosmos 1605 Rocket 4.0 09:57:05 16° SSW 10:02:04 68° W 10:08:12 10° N
USA 267 4.4 10:00:16 10° NNE 10:05:55 32° NW 10:11:21 11° W
Cosmos 2278 Rocket 3.7 10:05:17 10° SSE 10:10:19 34° ESE 10:15:21 10° NE
NOSS 2-2 (D) 2.8 10:08:13 23° SSW 10:10:23 81° WNW 10:13:35 10° NNE
Cosmos 1626 Rocket 3.5 10:06:55 16° SSW 10:10:28 71° W 10:14:54 10° N
NOSS 2-3 (E) 3.0 10:08:40 23° SW 10:10:52 77° WNW 10:14:33 10° NNE
CZ-4 R/B 4.1 10:06:35 10° N 10:11:25 56° WNW 10:15:17 16° SSW
USA 276 4.4 10:10:41 10° SSE 10:12:26 15° SE 10:14:10 10° E
BREEZE-M DEB (TANK) 3.9 10:15:45 12° S 10:15:45 12° S 10:16:13 10° S
H-2A R/B 3.4 10:10:17 10° NNE 10:15:11 38° E 10:19:56 10° SSE
NOSS 2-3 (C) 3.1 10:13:54 21° SW 10:16:13 65° WNW 10:19:53 10° NNE
SL-16 R/B 3.3 10:13:12 13° SSW 10:17:57 32° W 10:23:26 10° NW
Cosmos 1862 4.0 10:14:26 10° S 10:18:08 52° E 10:21:49 10° NNE
Cosmos 1271 Rocket 2.8 10:18:00 10° S 10:21:33 67° E 10:25:06 10° NNE
IRS-1D 3.5 10:16:38 10° N 10:21:47 81° WNW 10:26:47 10° SSW
SEDSat Delta rocket 2.7 10:20:59 11° W 10:24:46 82° S 10:28:53 10° E
Cosmos 1484 Rocket 4.2 10:27:17 10° NNE 10:30:49 36° E 10:34:19 10° SSE
Envisat 4.1 10:30:11 10° NNW 10:34:28 28° WNW 10:38:38 11° SW
Mugunghwa Rocket 4.2 10:31:01 10° W 10:37:21 52° S 10:43:25 10° ESE
Okean 1-7 Rocket 3.8 10:34:52 10° SSW 10:39:17 56° W 10:43:42 10° N
CZ-2C R/B 3.1 10:40:27 10° N 10:44:29 32° WNW 10:48:32 10° SW
NOSS 3-1 (C) 4.3 10:42:40 10° S 10:46:50 35° ESE 10:51:25 10° NE
Lacrosse 5 2.6 10:42:49 10° SSW 10:47:41 51° ESE 10:52:35 10° NE
Cosmos 1238 Rocket 4.0 10:46:06 10° NW 10:48:02 15° W 10:49:53 10° SW
Cosmos-2242 3.2 10:44:40 10° NNW 10:48:51 51° W 10:52:58 10° SSW
Cosmos 1802 Rocket 4.5 10:42:38 10° S 10:48:58 69° E 10:55:21 10° NNE
Cosmos 1782 3.1 10:50:13 10° NNW 10:53:51 42° W 10:57:27 10° SSW
